Date String (YYYY-MM-DD hh:mm:ss) UTC,Instrument flags,Ambient pressure (hPa),Sample flow (lpm),Bypass flow (lpm),Sample temperature (°C),Ambient temperature (°C),ASC tube jacket temperature (°C),LED temperature (°C),Box temperature (°C),Sample RH (%),Span deviation,Mass concentration (μg/m³),Mass concentration (μg/m³),Mass concentration (μg/m³)
DateTimeUTC,F1_M11,P_M11,Q1_M11,Q2_M11,T1_M11,T2_M11,T3_M11,T4_M11,T5_M11,U1_M11,ZSPAN_M11,X0_M11,X2_M11,X1_M11
2022-07-20 02:00:00,,0826.7,5.01,0.00,29.2,26.9,00.0,37.8,31.1,31.0,0000.0,0015.14,0006.33,0004.73
2022-07-20 02:01:00,,0826.7,4.99,0.00,29.2,26.8,00.0,37.8,31.0,31.1,0000.0,0015.02,0006.30,0004.75
2022-07-20 02:02:00,,0826.7,5.00,0.00,29.1,27.0,00.0,37.8,30.9,31.3,0000.0,0014.53,0006.30,0004.77
2022-07-20 02:03:00,,0826.7,5.01,0.00,29.1,27.1,00.0,37.8,31.0,31.5,0000.0,0013.86,0006.35,0004.80
2022-07-20 02:04:00,,0826.7,5.01,0.00,29.1,27.4,00.0,37.8,31.0,31.6,0000.0,0014.55,0006.43,0004.82
2022-07-20 02:05:00,,0826.7,5.00,0.00,29.1,27.6,00.0,37.8,31.1,31.6,0000.0,0014.91,0006.41,0004.83
2022-07-20 02:06:00,,0826.7,5.00,0.00,29.2,27.8,00.0,37.9,31.1,31.6,0000.0,0015.06,0006.46,0004.85
2022-07-20 02:07:00,,0826.7,4.99,0.00,29.2,28.0,00.0,37.9,31.2,31.6,0000.0,0015.35,0006.46,0004.85
2022-07-20 02:08:00,,0826.7,5.00,0.00,29.2,28.0,00.0,37.9,31.3,31.5,0000.0,0015.33,0006.49,0004.89
2022-07-20 02:09:00,,0826.7,5.00,0.00,29.2,27.5,00.0,37.8,31.2,31.6,0000.0,0016.66,0006.49,0004.91
2022-07-20 02:10:00,,0826.7,4.99,0.00,29.2,27.0,00.0,37.8,31.1,31.9,0000.0,0018.42,0006.52,0004.94
2022-07-20 02:11:00,,0826.7,5.01,0.00,29.2,26.9,00.0,37.8,31.0,32.0,0000.0,0018.42,0006.55,0004.95
2022-07-20 02:12:00,,0826.7,4.99,0.00,29.1,26.9,00.0,37.8,30.9,32.0,0000.0,0018.89,0006.60,0004.97
2022-07-20 02:13:00,,0826.8,5.02,0.00,29.1,27.1,00.0,37.8,30.9,32.1,0000.0,0019.71,0006.65,0004.99
2022-07-20 02:14:00,,0826.7,5.00,0.00,29.1,27.3,00.0,37.8,31.0,32.0,0000.0,0020.76,0006.69,0004.98
2022-07-20 02:15:00,,0826.7,5.00,0.00,29.1,27.5,00.0,37.9,31.1,32.1,0000.0,0020.33,0006.65,0004.98
2022-07-20 02:16:00,,0826.7,4.99,0.00,29.2,27.7,00.0,37.9,31.1,32.1,0000.0,0019.90,0006.62,0005.00
2022-07-20 02:17:00,,0826.9,5.01,0.00,29.2,27.9,00.0,37.9,31.2,32.1,0000.0,0020.05,0006.59,0005.03
2022-07-20 02:18:00,,0826.7,4.99,0.00,29.2,28.1,00.0,37.9,31.3,32.1,0000.0,0020.24,0006.60,0005.04
2022-07-20 02:19:00,,0826.7,5.00,0.00,29.3,28.0,00.0,37.9,31.3,32.0,0000.0,0020.57,0006.63,0005.05
2022-07-20 02:20:00,,0826.8,5.00,0.00,29.3,27.4,00.0,37.8,31.2,32.0,0000.0,0019.99,0006.66,0005.05
2022-07-20 02:21:00,,0826.8,5.01,0.00,29.2,27.0,00.0,37.8,31.1,32.2,0000.0,0018.12,0006.66,0005.07
2022-07-20 02:22:00,,0826.8,5.00,0.00,29.2,27.0,00.0,37.8,31.0,32.2,0000.0,0018.05,0006.75,0005.12
2022-07-20 02:23:00,,0826.8,5.00,0.00,29.2,27.1,00.0,37.8,31.0,32.3,0000.0,0016.98,0006.78,0005.13
2022-07-20 02:24:00,,0826.8,5.00,0.00,29.1,27.3,00.0,37.8,31.0,32.4,0000.0,0016.28,0006.83,0005.16
2022-07-20 02:25:00,,0826.8,5.01,0.00,29.2,27.5,00.0,37.9,31.1,32.4,0000.0,0015.84,0006.86,0005.20
2022-07-20 02:26:00,,0827.0,5.00,0.00,29.2,27.7,00.0,37.9,31.1,32.4,0000.0,0016.25,0006.90,0005.24
2022-07-20 02:27:00,,0827.3,4.99,0.00,29.2,27.9,00.0,37.9,31.2,32.3,0000.0,0016.49,0006.98,0005.27
2022-07-20 02:28:00,,0826.9,5.00,0.00,29.2,28.0,00.0,37.9,31.3,32.2,0000.0,0016.88,0007.12,0005.30
2022-07-20 02:29:00,,0826.9,5.00,0.00,29.3,28.0,00.0,37.9,31.3,32.2,0000.0,0016.71,0007.17,0005.34
2022-07-20 02:30:00,,0827.0,5.00,0.00,29.3,27.4,00.0,37.9,31.2,32.0,0000.0,0016.59,0007.17,0005.35
2022-07-20 02:31:00,,0827.1,5.01,0.00,29.2,27.0,00.0,37.8,31.1,32.0,0000.0,0016.07,0007.20,0005.38
2022-07-20 02:32:00,,0827.0,4.99,0.00,29.2,26.9,00.0,37.8,31.0,31.9,0000.0,0016.22,0007.19,0005.39
2022-07-20 02:33:00,,0827.2,5.01,0.00,29.1,27.0,00.0,37.8,31.0,31.8,0000.0,0015.54,0007.13,0005.39
2022-07-20 02:34:00,,0827.0,4.99,0.00,29.1,27.2,00.0,37.9,31.0,31.7,0000.0,0015.35,0007.09,0005.40
2022-07-20 02:35:00,,0826.8,5.00,0.00,29.1,27.4,00.0,37.9,31.0,31.7,0000.0,0015.24,0007.08,0005.41
2022-07-20 02:36:00,,0826.9,4.99,0.00,29.1,27.6,00.0,37.9,31.1,31.6,0000.0,0014.91,0007.10,0005.41
2022-07-20 02:37:00,,0826.9,5.00,0.00,29.2,27.8,00.0,37.9,31.2,31.3,0000.0,0014.20,0007.08,0005.42
2022-07-20 02:38:00,,0826.9,5.00,0.00,29.2,28.0,00.0,37.9,31.2,31.0,0000.0,0014.50,0007.03,0005.41
2022-07-20 02:39:00,,0827.0,4.99,0.00,29.3,28.1,00.0,37.9,31.3,31.1,0000.0,0013.98,0006.96,0005.39
2022-07-20 02:40:00,,0827.0,4.99,0.00,29.3,27.8,00.0,37.9,31.3,30.9,0000.0,0013.74,0006.91,0005.37
2022-07-20 02:41:00,,0826.9,5.00,0.00,29.3,27.1,00.0,37.8,31.2,30.9,0000.0,0013.81,0006.89,0005.37
2022-07-20 02:42:00,,0827.0,5.01,0.00,29.2,26.9,00.0,37.8,31.1,30.8,0000.0,0013.84,0006.85,0005.35
2022-07-20 02:43:00,,0827.3,4.99,0.00,29.2,26.9,00.0,37.8,31.0,30.8,0000.0,0014.04,0006.87,0005.33
2022-07-20 02:44:00,,0827.1,5.01,0.00,29.1,27.0,00.0,37.9,31.0,30.8,0000.0,0014.24,0006.84,0005.31
2022-07-20 02:45:00,,0826.9,5.00,0.00,29.1,27.2,00.0,37.9,31.0,30.6,0000.0,0015.24,0006.87,0005.30
2022-07-20 02:46:00,,0826.9,5.00,0.00,29.1,27.4,00.0,37.9,31.1,30.3,0000.0,0016.53,0006.79,0005.27
2022-07-20 02:47:00,,0826.9,5.00,0.00,29.2,27.6,00.0,37.9,31.1,30.3,0000.0,0016.40,0006.71,0005.24
2022-07-20 02:48:00,,0826.9,5.00,0.00,29.2,27.8,00.0,37.9,31.2,30.3,0000.0,0016.45,0006.67,0005.21
2022-07-20 02:49:00,,0826.9,4.99,0.00,29.2,28.0,00.0,37.9,31.3,30.1,0000.0,0016.37,0006.64,0005.19
2022-07-20 02:50:00,,0826.9,5.00,0.00,29.3,28.1,00.0,37.9,31.3,29.6,0000.0,0016.17,0006.56,0005.17
2022-07-20 02:51:00,,0826.9,4.99,0.00,29.3,27.6,00.0,37.9,31.3,29.8,0000.0,0016.11,0006.49,0005.15
2022-07-20 02:52:00,,0826.9,5.01,0.00,29.3,27.0,00.0,37.8,31.1,29.5,0000.0,0016.20,0006.47,0005.13
2022-07-20 02:53:00,,0826.9,5.00,0.00,29.2,26.9,00.0,37.8,31.1,29.5,0000.0,0016.87,0006.43,0005.12
2022-07-20 02:54:00,,0826.9,5.01,0.00,29.2,26.9,00.0,37.8,31.0,29.4,0000.0,0017.01,0006.40,0005.12
2022-07-20 02:55:00,,0826.9,5.00,0.00,29.1,27.1,00.0,37.8,31.0,29.4,0000.0,0017.02,0006.38,0005.09
2022-07-20 02:56:00,,0826.9,5.00,0.00,29.1,27.3,00.0,37.9,31.0,29.4,0000.0,0016.56,0006.32,0005.07
2022-07-20 02:57:00,,0826.9,4.99,0.00,29.1,27.5,00.0,37.9,31.1,29.6,0000.0,0015.52,0006.31,0005.05
2022-07-20 02:58:00,,0826.9,5.00,0.00,29.2,27.7,00.0,37.9,31.1,29.3,0000.0,0015.83,0006.32,0005.03
2022-07-20 02:59:00,,0826.9,4.99,0.00,29.2,27.9,00.0,37.9,31.2,29.1,0000.0,0016.40,0006.35,0005.01
